| time (UTC) | temp F | wind direction | speed MPH | gust MPH | rain 1hr in | rain 24hr in | rain mn in | humidity % | barometer mb |
| 20260903014505 | 68 | 35 | 0.0 | 2.0 | 0.00 | 0.00 | 0.00 | 77 | 1011.2 |
| 20260903013004 | 68 | 41 | 0.0 | 2.0 | 0.00 | 0.00 | 0.00 | 76 | 1011.1 |
| 20260903011504 | 70 | 41 | 0.0 | 1.0 | 0.00 | 0.00 | 0.00 | 74 | 1011.0 |
| 20260903010004 | 71 | 42 | 0.0 | 2.0 | 0.00 | 0.00 | 0.00 | 71 | 1011.0 |
| 20260903004503 | 73 | 41 | 0.0 | 3.0 | 0.00 | 0.00 | 0.00 | 68 | 1011.0 |
| 20260903003002 | 75 | 49 | 0.0 | 2.0 | 0.00 | 0.00 | 0.00 | 64 | 1011.0 |
| 20260903001501 | 77 | 40 | 1.0 | 3.0 | 0.00 | 0.00 | 0.00 | 61 | 1011.0 |
| 20260902234558 | 78 | 55 | 1.0 | 3.0 | 0.00 | 0.00 | 0.00 | 57 | 1011.1 |
| 20260902233058 | 79 | 54 | 1.0 | 4.0 | 0.00 | 0.00 | 0.00 | 58 | 1011.1 |
| 20260902231557 | 79 | 62 | 1.0 | 5.0 | 0.00 | 0.00 | 0.00 | 57 | 1011.2 |
| 20260902230111 | 79 | 50 | 1.0 | 6.0 | 0.00 | 0.00 | 0.00 | 58 | 1011.1 |
| 20260902224600 | 80 | 21 | 1.0 | 4.0 | 0.00 | 0.00 | 0.00 | 56 | 1011.2 |
| 20260902223056 | 80 | 32 | 2.0 | 7.0 | 0.00 | 0.00 | 0.00 | 59 | 1011.2 |
| 20260902221558 | 80 | 6 | 1.0 | 5.0 | 0.00 | 0.00 | 0.00 | 57 | 1011.1 |
| 20260902220059 | 80 | 103 | 1.0 | 5.0 | 0.00 | 0.00 | 0.00 | 58 | 1011.3 |
| 20260902214555 | 80 | 43 | 3.0 | 7.0 | 0.00 | 0.00 | 0.00 | 58 | 1011.4 |
| 20260902213051 | 80 | 114 | 1.0 | 4.0 | 0.00 | 0.00 | 0.00 | 56 | 1011.6 |
| 20260902211548 | 80 | 128 | 0.0 | 7.0 | 0.00 | 0.00 | 0.00 | 58 | 1011.8 |
| 20260902210045 | 79 | 68 | 2.0 | 7.0 | 0.00 | 0.00 | 0.00 | 59 | 1011.8 |
| 20260902204544 | 79 | 46 | 2.0 | 5.0 | 0.00 | 0.00 | 0.00 | 61 | 1011.9 |
| 20260902203043 | 79 | 87 | 3.0 | 9.0 | 0.00 | 0.00 | 0.00 | 62 | 1012.0 |
| 20260902201542 | 78 | 25 | 1.0 | 8.0 | 0.00 | 0.00 | 0.00 | 62 | 1012.0 |
| 20260902200040 | 79 | 80 | 1.0 | 7.0 | 0.00 | 0.00 | 0.00 | 64 | 1012.1 |
| 20260902194544 | 79 | 102 | 1.0 | 6.0 | 0.00 | 0.00 | 0.00 | 63 | 1012.2 |
| 20260902193037 | 78 | 103 | 3.0 | 7.0 | 0.00 | 0.00 | 0.00 | 62 | 1012.4 |
| 20260902191538 | 77 | 90 | 1.0 | 8.0 | 0.00 | 0.00 | 0.00 | 66 | 1012.5 |
| 20260902190049 | 77 | 51 | 2.0 | 7.0 | 0.00 | 0.00 | 0.00 | 63 | 1012.6 |
| 20260902184532 | 77 | 73 | 3.0 | 6.0 | 0.00 | 0.00 | 0.00 | 63 | 1012.5 |
| 20260902183030 | 77 | 2 | 4.0 | 9.0 | 0.00 | 0.00 | 0.00 | 63 | 1012.7 |
| 20260902181529 | 77 | 56 | 3.0 | 11.0 | 0.00 | 0.00 | 0.00 | 64 | 1012.8 |
| 20260902180034 | 76 | 5 | 4.0 | 8.0 | 0.00 | 0.00 | 0.00 | 64 | 1013.0 |
| 20260902174526 | 76 | 48 | 2.0 | 8.0 | 0.00 | 0.00 | 0.00 | 67 | 1013.0 |
| 20260902173035 | 76 | 37 | 1.0 | 9.0 | 0.00 | 0.00 | 0.00 | 67 | 1013.0 |
| 20260902171523 | 75 | 123 | 2.0 | 9.0 | 0.00 | 0.00 | 0.00 | 66 | 1013.2 |
| 20260902170021 | 74 | 39 | 3.0 | 6.0 | 0.00 | 0.00 | 0.00 | 69 | 1013.2 |
| 20260902164525 | 74 | 118 | 1.0 | 5.0 | 0.00 | 0.00 | 0.00 | 70 | 1013.5 |
| 20260902163019 | 75 | 46 | 1.0 | 4.0 | 0.00 | 0.00 | 0.00 | 71 | 1013.6 |
| 20260902161528 | 74 | 141 | 1.0 | 4.0 | 0.00 | 0.00 | 0.00 | 71 | 1013.7 |
| 20260902160012 | 73 | 87 | 1.0 | 5.0 | 0.00 | 0.00 | 0.00 | 72 | 1013.7 |
| 20260902154511 | 73 | 80 | 1.0 | 5.0 | 0.00 | 0.00 | 0.00 | 71 | 1013.7 |
| 20260902153008 | 72 | 113 | 0.0 | 4.0 | 0.00 | 0.00 | 0.00 | 73 | 1013.7 |
| 20260902151509 | 72 | 41 | 1.0 | 4.0 | 0.00 | 0.00 | 0.00 | 75 | 1013.8 |
| 20260902150006 | 71 | 75 | 0.0 | 4.0 | 0.00 | 0.00 | 0.00 | 80 | 1013.7 |
| 20260902144605 | 69 | 54 | 0.0 | 3.0 | 0.00 | 0.00 | 0.00 | 84 | 1013.7 |
| 20260902143055 | 67 | 59 | 0.0 | 3.0 | 0.00 | 0.00 | 0.00 | 88 | 1013.8 |
| 20260902141559 | 65 | 11 | 1.0 | 4.0 | 0.00 | 0.00 | 0.00 | 92 | 1013.7 |
| 20260902140055 | 63 | 50 | 1.0 | 3.0 | 0.00 | 0.00 | 0.00 | 95 | 1014.0 |
| 20260902134549 | 60 | 46 | 1.0 | 4.0 | 0.00 | 0.00 | 0.00 | 100 | 1014.2 |
| 20260902133043 | 58 | 56 | 0.0 | 2.0 | 0.00 | 0.00 | 0.00 | 100 | 1014.0 |
| 20260902131542 | 56 | 23 | 0.0 | 0.0 | 0.00 | 0.00 | 0.00 | 100 | 1014.0 |
| 20260902130042 | 55 | 15 | 0.0 | 0.0 | 0.00 | 0.00 | 0.00 | 100 | 1014.0 |
| 20260902124540 | 54 | 16 | 0.0 | 2.0 | 0.00 | 0.00 | 0.00 | 100 | 1014.0 |
| 20260902123038 | 53 | 9 | 1.0 | 3.0 | 0.00 | 0.00 | 0.00 | 100 | 1013.8 |
| 20260902121539 | 51 | 25 | 0.0 | 0.0 | 0.00 | 0.00 | 0.00 | 99 | 1013.8 |
| 20260902120038 | 51 | 25 | 0.0 | 1.0 | 0.00 | 0.00 | 0.00 | 99 | 1013.7 |
| 20260902114537 | 51 | 25 | 0.0 | 1.0 | 0.00 | 0.00 | 0.00 | 99 | 1013.6 |
| 20260902113034 | 51 | 25 | 0.0 | 0.0 | 0.00 | 0.00 | 0.00 | 99 | 1013.5 |
| 20260902111533 | 51 | 25 | 0.0 | 0.0 | 0.00 | 0.00 | 0.00 | 99 | 1013.6 |
| 20260902110032 | 51 | 25 | 0.0 | 0.0 | 0.00 | 0.00 | 0.00 | 99 | 1013.5 |
| 20260902104534 | 51 | 25 | 0.0 | 0.0 | 0.00 | 0.00 | 0.00 | 99 | 1013.3 |
| 20260902103029 | 51 | 25 | 0.0 | 0.0 | 0.00 | 0.00 | 0.00 | 99 | 1013.3 |
| 20260902101529 | 51 | 25 | 0.0 | 0.0 | 0.00 | 0.00 | 0.00 | 99 | 1013.4 |
| 20260902100028 | 51 | 25 | 0.0 | 0.0 | 0.00 | 0.00 | 0.00 | 98 | 1013.4 |
| 20260902094526 | 51 | 25 | 0.0 | 1.0 | 0.00 | 0.00 | 0.00 | 98 | 1013.3 |
| 20260902093023 | 52 | 25 | 0.0 | 1.0 | 0.00 | 0.00 | 0.00 | 98 | 1013.2 |
| 20260902091522 | 52 | 25 | 0.0 | 0.0 | 0.00 | 0.00 | 0.00 | 97 | 1013.2 |
| 20260902090019 | 52 | 25 | 0.0 | 0.0 | 0.00 | 0.00 | 0.00 | 98 | 1013.0 |
| 20260902084522 | 53 | 25 | 0.0 | 1.0 | 0.00 | 0.00 | 0.00 | 98 | 1012.9 |
| 20260902083016 | 53 | 51 | 0.0 | 1.0 | 0.00 | 0.00 | 0.00 | 97 | 1012.9 |
| 20260902081514 | 54 | 51 | 0.0 | 0.0 | 0.00 | 0.00 | 0.00 | 97 | 1012.8 |
| 20260902080012 | 55 | 51 | 0.0 | 0.0 | 0.00 | 0.00 | 0.00 | 97 | 1012.7 |
| 20260902074511 | 55 | 51 | 0.0 | 0.0 | 0.00 | 0.00 | 0.00 | 98 | 1012.7 |
| 20260902073010 | 55 | 51 | 0.0 | 0.0 | 0.00 | 0.00 | 0.00 | 97 | 1012.7 |
| 20260902071514 | 55 | 51 | 0.0 | 1.0 | 0.00 | 0.00 | 0.00 | 96 | 1012.7 |
| 20260902070007 | 56 | 51 | 0.0 | 1.0 | 0.00 | 0.00 | 0.00 | 96 | 1012.8 |
| 20260902064511 | 57 | 51 | 0.0 | 1.0 | 0.00 | 0.00 | 0.00 | 96 | 1012.7 |
| 20260902063006 | 57 | 51 | 0.0 | 0.0 | 0.00 | 0.00 | 0.00 | 96 | 1012.7 |
| 20260902061600 | 58 | 51 | 0.0 | 0.0 | 0.00 | 0.00 | 0.00 | 95 | 1012.7 |
| 20260902060113 | 58 | 51 | 0.0 | 0.0 | 0.00 | 0.00 | 0.00 | 96 | 1012.7 |
| 20260902054609 | 58 | 51 | 0.0 | 1.0 | 0.00 | 0.00 | 0.00 | 95 | 1012.8 |
| 20260902053055 | 59 | 51 | 0.0 | 0.0 | 0.00 | 0.00 | 0.00 | 95 | 1012.9 |
| 20260902051558 | 59 | 51 | 0.0 | 1.0 | 0.00 | 0.00 | 0.00 | 94 | 1012.8 |
| 20260902050049 | 60 | 51 | 0.0 | 1.0 | 0.00 | 0.00 | 0.00 | 93 | 1012.8 |
| 20260902044548 | 61 | 51 | 0.0 | 1.0 | 0.00 | 0.00 | 0.00 | 91 | 1012.8 |
| 20260902043106 | 62 | 51 | 0.0 | 0.0 | 0.00 | 0.00 | 0.00 | 90 | 1012.7 |
| 20260902041601 | 62 | 51 | 0.0 | 0.0 | 0.00 | 0.00 | 0.00 | 88 | 1012.5 |
| 20260902040045 | 63 | 51 | 0.0 | 2.0 | 0.00 | 0.00 | 0.00 | 87 | 1012.4 |
| 20260902034550 | 63 | 51 | 0.0 | 1.0 | 0.00 | 0.00 | 0.00 | 86 | 1012.4 |
| 20260902033050 | 65 | 51 | 0.0 | 3.0 | 0.00 | 0.00 | 0.00 | 83 | 1012.3 |
| 20260902031543 | 66 | 30 | 2.0 | 4.0 | 0.00 | 0.00 | 0.00 | 82 | 1012.3 |
| 20260902030045 | 66 | 16 | 0.0 | 3.0 | 0.00 | 0.00 | 0.00 | 81 | 1012.2 |
| 20260902024548 | 66 | 27 | 0.0 | 1.0 | 0.00 | 0.00 | 0.00 | 81 | 1012.4 |
| 20260902023042 | 67 | 27 | 2.0 | 4.0 | 0.00 | 0.00 | 0.00 | 80 | 1012.3 |
| 20260902021542 | 65 | 243 | 0.0 | 2.0 | 0.00 | 0.00 | 0.00 | 82 | 1012.0 |
| 20260902020044 | 66 | 234 | 0.0 | 1.0 | 0.00 | 0.00 | 0.00 | 82 | 1011.8 |